Wind_Speed
12 12 13 13 15 14 13 13 14 14 13 13 12 12 12 11 10 10 9 10 10 10 10 10 10 10 11 12 12 13 13 14 14 14 14 13 13 13 12 11 12 12 11 10 10 9 9 8 8
10 11 11 12 14 11 11 12 13 13 12 12 12 12 11 10 10 9 8 9 9 9 9 9 9 9 10 10 11 12 13 13 13 13 13 13 13 12 12 12 11 11 11 10 10 9 9 8 8
10 10 11 12 10 9 9 11 12 12 12 12 12 11 10 10 9 8 8 8 8 8 8 8 8 8 9 10 10 11 12 12 12 12 12 12 12 12 11 12 11 10 10 10 10 9 9 7 7
9 9 10 11 9 9 9 10 11 12 13 12 12 12 10 10 9 8 7 7 7 7 7 7 7 7 8 9 9 10 10 10 11 11 11 11 11 11 10 11 10 10 9 9 9 8 8 7 6
7 8 9 9 8 9 9 9 10 12 13 13 13 13 11 10 9 8 7 7 6 6 6 6 6 6 7 8 8 9 10 10 11 11 10 10 10 10 10 10 9 9 9 8 8 8 7 7 6
6 7 7 5 7 8 9 9 10 11 12 12 13 12 12 10 9 8 7 6 6 5 5 5 5 5 6 7 7 8 8 9 10 10 10 9 9 9 9 8 8 8 8 7 7 7 7 7 6
4 5 4 4 6 7 8 9 10 10 11 12 12 12 11 10 9 8 6 6 6 5 5 5 4 5 5 6 7 7 7 8 9 9 9 8 8 8 8 7 7 6 6 6 6 6 6 7 6
1 2 2 4 4 5 7 8 9 9 10 11 11 11 11 10 9 8 7 6 5 5 4 4 4 4 5 5 6 6 6 7 7 8 8 8 7 7 7 7 6 5 6 6 6 6 6 6 6
1 1 0 2 3 3 5 6 7 8 9 10 11 11 11 10 9 8 7 6 6 5 4 4 4 4 4 4 4 5 6 6 7 7 7 6 6 6 6 6 5 5 5 5 5 5 6 6 6
4 3 3 1 1 2 3 5 6 7 9 9 9 9 9 9 9 8 6 5 5 4 4 3 3 3 3 3 4 4 5 6 6 6 6 6 6 5 5 5 5 4 4 4 4 5 5 5 5
7 6 4 3 1 0 2 3 4 5 7 8 8 9 9 9 9 8 6 5 4 4 3 3 2 2 2 2 3 4 4 5 5 5 5 5 5 5 4 4 4 4 4 3 4 4 4 4 4
9 8 6 5 3 2 1 2 3 4 6 7 7 8 8 8 8 7 6 5 4 3 2 3 2 2 2 2 2 3 3 4 5 4 4 4 4 4 4 4 4 3 3 3 3 3 3 3 4
12 10 9 7 5 3 2 1 2 3 4 5 6 6 7 8 7 6 6 5 5 3 2 2 2 2 2 2 2 2 3 3 4 4 4 4 4 3 3 3 3 3 3 2 2 2 2 2 3
14 13 12 10 8 5 4 2 2 2 3 3 4 5 6 6 6 6 6 5 5 3 3 2 2 2 2 2 1 2 2 3 3 3 3 4 4 4 3 3 3 3 2 2 2 1 1 1 2
16 15 14 13 10 8 6 5 4 3 3 3 3 4 4 4 5 5 5 5 5 3 2 3 2 2 1 1 1 1 2 2 3 3 4 4 4 4 4 3 3 3 2 2 1 1 1 1 1
19 18 17 15 13 11 9 8 7 5 4 3 3 4 3 4 4 4 4 4 4 3 3 3 3 2 1 1 0 1 2 2 3 3 4 4 4 4 4 4 3 3 3 2 2 2 1 1 1
21 19 19 18 16 14 12 12 10 8 6 5 4 4 4 4 4 4 4 4 4 4 3 3 4 3 2 2 2 2 2 2 2 3 4 4 4 4 4 4 4 4 3 3 3 2 2 2 2
22 21 21 20 18 16 15 14 12 10 8 7 6 5 4 4 4 4 4 4 5 4 4 4 4 4 3 3 3 3 3 3 3 4 4 4 4 5 5 5 5 4 4 4 4 4 4 3 3
24 23 23 23 20 18 17 16 15 13 10 9 8 7 6 6 6 6 6 6 6 6 6 6 5 5 4 4 3 3 3 4 5 4 4 4 5 5 5 5 5 5 5 4 4 4 4 4 3
25 25 25 25 22 21 19 18 17 15 13 11 10 9 8 8 7 7 7 7 7 7 7 7 6 5 5 5 4 4 4 4 5 5 4 5 6 6 6 5 5 5 5 5 5 5 5 4 4
27 26 27 27 24 22 21 20 19 17 15 13 12 11 11 10 10 9 9 8 8 8 8 8 8 7 6 5 4 4 4 4 5 5 6 6 6 6 7 6 6 6 7 7 6 5 5 6 5
29 29 28 27 25 25 22 21 21 18 16 15 14 13 12 12 11 10 10 10 10 9 9 9 8 7 6 5 5 5 5 5 5 6 7 7 7 8 8 8 8 8 8 8 8 8 8 7 7
31 30 29 28 27 26 25 23 21 20 18 16 15 14 13 13 13 12 11 11 11 10 10 10 9 8 7 6 6 6 7 7 7 7 7 7 8 8 8 8 9 9 8 9 9 9 9 9 9
31 30 30 29 28 28 27 24 22 20 18 18 16 15 15 15 14 14 13 13 12 11 11 11 10 9 8 8 8 8 8 8 9 9 9 9 9 9 10 10 10 10 10 10 10 11 10 10 10
31 30 30 30 30 29 28 26 24 22 19 19 17 17 16 16 16 16 15 13 12 12 12 12 11 11 10 9 9 10 10 10 10 10 10 10 10 11 11 11 11 11 11 11 11 12 12 12 11
30 30 30 27 26 27 29 28 26 23 20 19 18 17 17 16 16 15 15 15 14 14 13 13 13 12 11 11 11 12 12 12 12 11 11 12 12 12 12 12 12 12 12 12 11 12 13 13 12
31 31 30 29 27 25 27 27 26 23 21 20 19 18 17 17 16 15 15 16 16 15 15 14 14 13 12 12 13 13 13 13 13 12 12 12 12 12 12 12 12 12 12 12 12 13 12 12 13
32 32 32 31 29 26 25 26 24 23 21 20 19 18 18 17 16 16 16 16 17 16 16 15 14 13 13 13 13 13 14 14 14 13 13 13 13 13 12 12 12 11 11 12 13 13 13 13 14
32 33 33 31 30 26 22 23 24 23 22 21 20 19 19 18 17 17 17 17 17 16 16 15 15 14 14 14 13 13 14 15 15 14 14 14 13 13 13 13 13 13 13 13 13 13 14 14 15
32 32 32 31 31 29 23 22 25 23 22 22 22 21 20 19 18 17 17 17 17 16 15 15 16 15 14 15 15 14 14 14 15 15 14 13 13 13 13 13 13 14 14 14 15 15 15 16 17
Wind_Direction
71 66 65 66 65 66 66 65 64 63 65 67 70 73 74 78 82 83 87 88 89 91 94 97 100 100 100 100 99 102 104 103 102 103 102 101 102 101 99 98 98 97 99 100 99 102 102 101 97
68 66 64 61 68 66 63 63 63 62 63 65 67 69 70 72 78 81 86 89 90 92 95 98 102 104 104 105 106 107 107 106 106 106 104 103 103 103 103 103 101 99 98 97 97 99 97 97 95
68 68 61 59 65 67 61 61 64 62 59 60 63 67 68 68 73 78 85 89 90 93 96 100 107 108 108 109 110 113 112 109 108 109 108 106 103 104 104 105 104 102 100 97 97 94 92 92 93
68 67 62 62 56 54 57 61 62 60 58 56 59 64 65 67 69 74 84 88 92 95 98 104 112 114 114 112 114 117 116 115 115 114 112 111 110 108 106 109 106 104 102 101 98 93 90 87 85
67 67 63 58 48 48 50 56 56 56 54 53 55 60 64 66 65 68 80 88 91 98 104 109 116 122 122 119 121 121 121 124 119 118 116 115 113 111 109 109 106 104 103 100 97 93 89 83 80
71 64 70 61 45 42 44 47 51 53 53 52 53 57 62 63 61 60 70 80 89 96 103 113 120 127 127 124 124 125 123 124 123 122 121 117 112 109 108 108 108 105 101 96 93 92 89 80 77
75 71 70 59 46 40 43 46 46 47 50 52 52 52 54 60 59 57 59 74 86 97 103 111 118 123 128 128 127 126 126 125 128 127 124 121 117 114 112 112 108 106 105 102 99 92 82 77 77
95 73 56 57 55 39 44 44 41 43 47 51 52 51 52 58 58 57 57 68 82 98 106 111 116 123 126 131 137 138 135 131 132 132 130 124 122 119 116 117 114 113 110 107 99 87 77 77 74
232 146 180 75 74 45 40 40 37 40 44 48 51 53 55 56 53 54 57 67 78 94 103 113 117 120 126 135 142 147 146 141 137 137 136 130 125 120 120 124 120 116 112 109 100 92 82 78 73
239 220 230 200 122 45 33 33 35 38 42 45 47 51 54 53 54 55 58 69 74 88 97 106 111 118 126 137 145 153 155 150 147 144 143 141 137 130 129 131 127 122 119 114 98 89 86 80 74
241 237 240 236 227 310 11 16 25 39 40 38 42 49 50 53 59 57 56 62 69 87 92 95 101 102 123 135 145 158 162 163 161 157 157 150 142 137 135 138 136 130 124 114 103 95 92 83 72
242 245 245 243 237 241 323 2 19 39 36 33 35 44 47 53 58 56 55 54 56 76 87 94 82 68 100 124 150 169 173 176 171 164 166 164 154 149 147 147 140 135 127 116 105 102 100 90 71
239 245 246 244 239 241 258 324 355 21 27 29 32 38 42 50 54 52 49 49 47 57 71 89 69 59 65 83 137 170 178 182 181 178 177 176 176 168 158 157 155 146 131 121 117 106 99 94 78
238 241 242 242 238 239 246 261 297 340 358 11 22 31 35 38 45 46 41 39 38 52 62 69 65 61 52 70 118 181 186 195 200 196 194 191 190 189 180 176 170 156 142 135 141 132 105 89 70
238 240 241 241 238 235 239 249 268 289 314 339 0 12 19 22 25 28 28 25 24 37 42 48 47 31 20 62 79 192 204 213 215 214 213 210 207 210 202 197 186 179 176 172 169 176 178 168 101
236 238 240 241 238 235 236 247 255 264 280 294 316 337 342 349 358 7 6 3 8 15 9 4 357 350 328 332 250 236 232 229 225 225 226 225 218 218 220 216 211 203 199 198 199 208 215 221 231
234 236 237 241 238 236 234 238 248 251 264 272 282 302 311 318 329 342 344 346 347 344 340 339 336 331 311 300 285 274 253 240 244 244 241 241 234 233 235 231 231 228 224 220 218 226 221 224 231
235 235 236 240 238 237 236 237 243 244 253 260 265 277 288 295 305 314 319 324 327 325 316 317 317 312 304 287 285 266 255 248 252 254 249 246 242 243 245 245 243 240 241 236 227 226 226 225 232
232 232 236 239 239 237 237 238 242 242 246 251 255 261 270 278 286 297 300 304 308 312 306 301 305 300 297 286 278 271 272 258 249 252 251 246 250 256 254 256 247 248 247 245 236 232 234 230 238
231 232 235 239 239 238 237 238 241 242 242 242 248 254 263 271 281 288 291 296 302 302 303 298 294 289 290 289 282 277 280 265 252 250 251 255 256 260 263 258 249 250 248 248 248 244 242 246 249
230 230 233 237 239 239 238 239 241 241 241 240 246 253 262 269 273 279 285 289 293 296 299 300 291 288 287 288 291 278 284 283 269 269 265 264 259 257 260 253 248 260 257 253 253 249 251 251 253
230 230 233 235 236 238 238 239 243 241 240 240 244 252 260 264 267 272 279 282 287 290 292 298 288 287 286 287 294 291 290 291 288 287 279 274 270 267 264 258 256 261 266 262 256 256 258 258 257
230 230 231 233 234 238 239 237 244 243 239 241 245 250 255 260 261 265 273 276 280 284 288 292 286 284 283 284 292 294 289 286 286 284 280 278 273 271 269 267 263 266 267 266 260 260 261 259 259
229 228 229 231 234 237 240 239 240 243 238 240 244 247 251 255 259 262 267 271 278 281 283 287 289 285 279 279 286 290 289 287 285 284 279 278 276 274 271 269 267 269 269 268 265 261 260 259 263
226 226 227 230 233 236 239 239 240 241 239 238 242 243 246 253 258 260 263 268 273 277 280 282 283 280 276 276 280 285 288 288 284 281 278 276 275 274 273 271 270 270 272 271 270 265 261 262 265
226 225 225 228 234 238 240 240 241 240 238 238 239 240 243 248 254 258 259 264 268 272 276 278 278 276 275 275 279 282 284 287 286 280 278 277 274 274 275 273 272 271 272 271 270 267 262 263 267
224 223 224 227 230 232 242 241 240 241 239 237 237 238 242 246 251 255 257 261 265 268 272 275 275 274 273 273 276 280 282 284 286 285 282 279 274 270 271 270 271 271 272 271 270 268 267 267 268
224 223 224 225 228 231 238 242 240 240 237 236 237 237 240 244 249 251 254 259 262 265 269 274 274 275 273 274 277 280 280 282 283 284 283 281 278 271 268 269 267 270 273 271 271 270 272 273 272
225 224 225 227 229 230 236 242 239 238 236 236 237 237 241 244 247 250 253 256 259 263 267 271 269 272 271 273 276 280 284 281 280 280 282 282 280 274 269 267 266 267 271 271 271 271 273 274 273
225 225 226 228 231 229 229 239 240 237 237 237 238 240 242 244 245 249 252 256 259 263 266 272 271 270 269 270 273 278 281 282 280 279 276 277 278 276 272 268 267 269 271 271 272 272 273 274 274
Height
5906 5906 5906 5906 5906 5907 5905 5904 5902 5901 5899 5898 5897 5896 5895 5895 5895 5897 5894 5892 5893 5892 5892 5893 5893 5892 5892 5892 5891 5891 5891 5891 5891 5892 5892 5892 5892 5893 5893 5894 5894 5894 5895 5895 5895 5895 5895 5895 5895
5908 5907 5908 5908 5909 5909 5907 5905 5904 5902 5901 5899 5898 5897 5896 5896 5895 5895 5894 5894 5894 5894 5894 5894 5894 5894 5894 5894 5893 5893 5893 5893 5893 5894 5894 5894 5894 5895 5895 5895 5895 5896 5896 5896 5896 5896 5896 5896 5896
5909 5909 5910 5910 5911 5911 5909 5907 5905 5904 5902 5901 5899 5898 5898 5897 5896 5896 5896 5895 5895 5895 5895 5895 5895 5896 5895 5895 5895 5895 5895 5895 5895 5895 5895 5895 5896 5896 5897 5897 5897 5897 5897 5898 5898 5898 5898 5898 5898
5911 5912 5912 5913 5912 5911 5910 5908 5907 5905 5904 5902 5901 5900 5899 5898 5898 5897 5897 5896 5896 5896 5896 5897 5897 5897 5897 5896 5897 5896 5896 5896 5896 5897 5897 5897 5898 5898 5898 5898 5899 5899 5899 5899 5899 5899 5899 5899 5899
5912 5913 5914 5914 5913 5912 5911 5909 5908 5906 5905 5903 5902 5901 5899 5899 5898 5898 5897 5897 5897 5897 5898 5898 5898 5898 5898 5898 5898 5898 5897 5897 5898 5898 5898 5898 5899 5899 5900 5900 5900 5900 5900 5900 5900 5900 5900 5900 5900
5913 5914 5917 5916 5915 5913 5912 5911 5909 5908 5906 5905 5903 5902 5901 5900 5900 5899 5899 5899 5898 5898 5899 5899 5899 5899 5899 5899 5899 5899 5899 5899 5899 5899 5899 5899 5900 5900 5901 5901 5901 5901 5901 5901 5901 5902 5901 5901 5901
5915 5915 5916 5916 5915 5914 5913 5912 5911 5909 5908 5906 5905 5903 5902 5901 5901 5900 5900 5900 5900 5899 5900 5900 5900 5900 5900 5900 5900 5900 5900 5900 5900 5900 5901 5901 5901 5901 5902 5902 5902 5902 5902 5902 5903 5903 5902 5902 5902
5914 5916 5916 5916 5916 5915 5914 5913 5912 5911 5909 5908 5906 5905 5903 5903 5902 5901 5901 5901 5901 5900 5900 5901 5901 5901 5901 5901 5901 5901 5901 5901 5901 5902 5902 5902 5902 5902 5902 5903 5903 5903 5903 5903 5903 5903 5903 5903 5903
5913 5916 5917 5917 5917 5916 5915 5914 5913 5912 5910 5909 5907 5906 5905 5904 5903 5902 5902 5902 5902 5902 5902 5902 5902 5902 5902 5901 5901 5901 5901 5902 5902 5902 5903 5903 5903 5903 5903 5903 5903 5904 5904 5904 5904 5904 5904 5904 5904
5913 5915 5916 5916 5916 5916 5915 5914 5914 5913 5911 5910 5908 5907 5905 5904 5904 5903 5903 5903 5903 5903 5903 5903 5903 5902 5902 5902 5902 5902 5902 5902 5903 5903 5903 5904 5904 5904 5904 5904 5904 5904 5904 5905 5905 5905 5905 5905 5904
5911 5913 5914 5915 5915 5916 5915 5915 5914 5913 5912 5911 5909 5908 5906 5905 5905 5904 5904 5904 5904 5904 5904 5903 5903 5903 5903 5903 5903 5903 5903 5903 5903 5903 5904 5904 5904 5904 5904 5904 5904 5905 5905 5905 5905 5905 5905 5905 5905
5909 5910 5912 5914 5914 5915 5915 5915 5914 5914 5913 5912 5911 5909 5908 5907 5906 5906 5905 5905 5905 5905 5904 5904 5904 5904 5904 5903 5903 5903 5903 5903 5904 5904 5904 5904 5904 5904 5905 5905 5905 5905 5905 5905 5906 5906 5906 5906 5905
5907 5909 5910 5912 5913 5914 5915 5915 5914 5914 5913 5912 5911 5910 5909 5908 5907 5907 5907 5906 5906 5905 5905 5905 5905 5904 5904 5904 5903 5903 5903 5904 5904 5904 5905 5905 5905 5905 5905 5905 5905 5905 5905 5906 5906 5906 5906 5906 5906
5905 5907 5908 5910 5911 5913 5914 5914 5914 5914 5913 5912 5912 5911 5910 5909 5909 5908 5908 5907 5907 5906 5906 5905 5905 5905 5904 5904 5904 5903 5904 5904 5904 5904 5905 5905 5905 5905 5905 5905 5906 5906 5906 5906 5906 5906 5906 5906 5906
5902 5905 5906 5908 5910 5911 5913 5914 5914 5913 5913 5912 5912 5911 5911 5910 5910 5909 5909 5908 5907 5907 5906 5906 5905 5905 5904 5904 5904 5903 5904 5904 5904 5904 5905 5905 5905 5905 5905 5905 5906 5906 5906 5906 5906 5906 5906 5906 5906
5899 5902 5904 5906 5907 5909 5912 5913 5913 5912 5912 5912 5912 5911 5911 5911 5910 5910 5909 5908 5908 5907 5907 5906 5905 5905 5904 5904 5904 5904 5904 5904 5904 5904 5904 5904 5905 5905 5905 5905 5905 5906 5906 5906 5906 5906 5906 5906 5906
5896 5899 5901 5903 5905 5907 5909 5911 5911 5911 5911 5911 5911 5911 5911 5911 5910 5910 5909 5908 5908 5907 5907 5906 5905 5905 5904 5904 5903 5903 5903 5904 5904 5904 5904 5904 5904 5904 5905 5905 5905 5905 5905 5905 5905 5906 5906 5905 5905
5893 5896 5897 5899 5901 5904 5906 5908 5909 5909 5910 5910 5910 5910 5910 5910 5910 5909 5909 5908 5908 5907 5906 5906 5905 5904 5904 5903 5903 5903 5903 5903 5903 5903 5903 5903 5904 5904 5904 5904 5904 5905 5905 5904 5905 5905 5905 5905 5905
5888 5891 5893 5895 5897 5901 5903 5905 5906 5907 5908 5908 5909 5909 5909 5909 5909 5908 5908 5908 5907 5907 5906 5905 5905 5904 5903 5903 5902 5902 5902 5902 5902 5902 5902 5902 5903 5903 5903 5903 5904 5904 5904 5904 5904 5904 5904 5904 5904
5883 5886 5889 5891 5894 5897 5899 5901 5903 5905 5906 5907 5907 5908 5908 5908 5908 5908 5907 5907 5906 5906 5905 5905 5904 5904 5903 5903 5902 5902 5901 5901 5901 5901 5901 5901 5901 5901 5901 5902 5902 5902 5903 5903 5903 5903 5904 5904 5904
5878 5881 5884 5886 5890 5892 5896 5898 5900 5902 5903 5904 5905 5906 5906 5907 5906 5906 5906 5905 5905 5904 5904 5904 5903 5903 5902 5902 5901 5901 5900 5900 5900 5900 5900 5899 5900 5900 5900 5900 5901 5901 5901 5902 5902 5902 5902 5903 5903
5872 5876 5878 5882 5886 5888 5892 5895 5896 5898 5900 5902 5903 5904 5904 5905 5905 5904 5904 5904 5904 5903 5903 5903 5902 5902 5901 5901 5901 5900 5899 5899 5899 5898 5898 5898 5898 5898 5898 5899 5899 5899 5900 5900 5900 5901 5901 5901 5901
5866 5870 5874 5877 5881 5884 5887 5891 5894 5894 5896 5899 5900 5901 5902 5902 5903 5903 5903 5903 5902 5902 5901 5901 5900 5900 5900 5900 5899 5899 5898 5898 5897 5897 5897 5897 5897 5897 5897 5897 5897 5897 5898 5898 5898 5899 5899 5899 5899
5860 5865 5869 5872 5876 5879 5882 5886 5890 5890 5893 5895 5897 5898 5899 5899 5900 5900 5900 5901 5900 5900 5900 5899 5899 5898 5898 5898 5898 5897 5897 5896 5895 5895 5895 5894 5895 5895 5895 5895 5895 5895 5895 5896 5896 5896 5897 5897 5897
5855 5861 5865 5867 5870 5874 5877 5880 5885 5886 5889 5891 5893 5894 5895 5896 5897 5897 5898 5898 5898 5898 5898 5898 5897 5897 5896 5896 5896 5895 5895 5894 5893 5893 5893 5892 5892 5892 5892 5892 5893 5893 5893 5893 5893 5893 5894 5894 5894
5850 5856 5861 5865 5868 5871 5871 5874 5879 5881 5884 5887 5889 5890 5891 5892 5893 5894 5895 5895 5896 5896 5896 5895 5895 5895 5894 5894 5893 5893 5892 5892 5891 5891 5890 5890 5890 5890 5890 5890 5890 5890 5890 5890 5890 5890 5890 5891 5891
5844 5848 5855 5859 5862 5866 5867 5870 5874 5876 5879 5882 5884 5886 5888 5889 5890 5891 5892 5892 5893 5893 5893 5893 5892 5892 5892 5891 5891 5891 5890 5889 5889 5888 5888 5887 5887 5887 5887 5887 5887 5887 5887 5887 5887 5887 5887 5888 5888
5838 5843 5847 5852 5856 5861 5864 5865 5869 5871 5875 5877 5880 5882 5883 5885 5887 5887 5888 5889 5889 5890 5890 5890 5889 5889 5889 5888 5888 5888 5887 5886 5886 5886 5885 5885 5884 5884 5884 5884 5884 5884 5884 5884 5884 5884 5885 5885 5885
5833 5837 5842 5847 5851 5857 5861 5864 5864 5867 5870 5873 5875 5877 5879 5881 5883 5884 5884 5885 5886 5887 5886 5886 5886 5885 5885 5885 5885 5885 5884 5884 5883 5882 5882 5881 5881 5880 5881 5881 5881 5881 5881 5881 5881 5881 5881 5881 5881
5826 5831 5836 5842 5845 5850 5856 5861 5857 5862 5865 5867 5870 5873 5875 5877 5878 5880 5881 5882 5882 5883 5883 5883 5882 5882 5882 5882 5881 5881 5881 5880 5879 5879 5878 5878 5878 5877 5877 5877 5877 5877 5877 5877 5877 5877 5877 5877 5877